GW5292 Weather Reports


time (UTC)temp
F
wind
direction
speed
knots
gust
knots
rain 1hr
in
rain 24hr
in
rain mn
in
humidity
%
barometer
mb
20260902153016 72 315 0.9 1.7 0.00 0.30 0.00 91 1019.9
20260902151520 71 338 0.9 2.6 0.00 0.30 0.00 92 1019.4
20260902150006 71 72 0.9 1.7 0.00 0.30 0.00 92 1019.6
20260902144510 71 340 0.9 3.5 0.00 0.30 0.00 92 1020.0
20260902143015 71 214 0.0 1.7 0.00 0.30 0.00 93 1020.0
20260902141533 71 14 0.9 1.7 0.00 0.30 0.00 93 1019.9
20260902140004 71 30 0.9 2.6 0.00 0.30 0.00 93 1020.0
20260902134510 70 32 0.9 3.5 0.00 0.30 0.00 93 1019.9
20260902133011 70 248 0.0 2.6 0.00 0.30 0.00 93 1019.7
20260902131522 70 36 0.9 3.5 0.00 0.30 0.00 94 1019.6
20260902130026 70 20 0.9 2.6 0.00 0.30 0.00 94 1019.5
20260902124507 70 275 0.0 1.7 0.00 0.30 0.00 94 1019.2
20260902123010 70 142 0.0 1.7 0.00 0.30 0.00 95 1019.2
20260902121519 70 38 0.0 1.7 0.00 0.30 0.00 96 1019.0
20260902120024 70 39 0.9 4.3 0.00 0.30 0.00 96 1018.8
20260902114534 70 280 0.0 1.7 0.00 0.30 0.00 96 1018.8
20260902113009 70 23 0.0 1.7 0.00 0.30 0.00 97 1019.0
20260902111515 70 31 0.0 1.7 0.00 0.30 0.00 97 1018.6
20260902110023 70 35 0.0 0.9 0.00 0.30 0.00 97 1018.5
20260902104537 70 338 0.0 1.7 0.00 0.30 0.00 97 1018.8
20260902103030 70 338 0.0 0.0 0.00 0.30 0.00 97 1018.7
20260902101510 70 338 0.0 0.0 0.00 0.30 0.00 97 1018.5
20260902100029 70 338 0.0 0.9 0.00 0.30 0.00 97 1018.3
20260902094524 70 334 0.0 1.7 0.00 0.30 0.00 97 1018.3
20260902093027 70 338 0.0 0.0 0.00 0.30 0.00 97 1018.2
20260902091541 69 338 0.0 0.0 0.00 0.30 0.00 97 1018.1
20260902090013 69 337 0.0 0.0 0.00 0.30 0.00 97 1018.1
20260902084520 69 337 0.0 0.0 0.00 0.30 0.00 97 1018.1
20260902083025 69 338 0.0 0.0 0.00 0.30 0.00 97 1017.8
20260902081532 69 338 0.0 0.0 0.00 0.30 0.00 97 1017.6
20260902080034 69 338 0.0 0.9 0.00 0.30 0.00 96 1017.4
20260902074517 69 348 0.9 1.7 0.00 0.30 0.00 97 1017.3
20260902073024 69 24 0.9 1.7 0.00 0.30 0.00 96 1017.1
20260902071529 69 348 0.9 0.9 0.00 0.30 0.00 96 1017.0
20260902070033 69 348 0.0 0.0 0.00 0.30 0.00 96 1017.0
20260902064534 69 348 0.0 0.0 0.00 0.30 0.00 96 1017.2
20260902063023 69 348 0.0 1.7 0.00 0.30 0.00 96 1017.0
20260902061530 70 348 0.0 1.7 0.00 0.30 0.00 96 1017.3
20260902060016 70 348 0.0 0.0 0.00 0.30 0.00 96 1017.3
20260902054513 70 348 0.0 0.9 0.00 0.30 0.00 96 1017.5
20260902053032 70 348 0.0 1.7 0.00 0.30 0.00 96 1017.5
20260902051529 71 348 0.0 1.7 0.00 0.30 0.00 96 1017.6
20260902050005 71 348 0.0 0.0 0.00 0.30 0.00 96 1017.3
20260902044511 71 348 0.0 1.7 0.00 0.30 0.00 96 1017.1
20260902043017 71 296 0.0 1.7 0.00 0.30 0.00 96 1017.4
20260902041524 71 296 0.0 1.7 0.00 0.30 0.00 96 1017.5
20260902040028 71 250 0.0 0.0 0.00 0.30 0.00 96 1017.4
20260902034507 71 250 0.0 0.0 0.00 0.30 0.30 96 1017.3
20260902033023 71 251 0.0 0.0 0.00 0.30 0.30 96 1016.8
20260902031518 71 202 0.0 0.0 0.00 0.31 0.30 96 1016.1
20260902030026 71 202 0.0 0.0 0.00 0.31 0.30 96 1015.8
20260902024528 71 202 0.0 1.7 0.00 0.31 0.30 96 1015.9
20260902023008 71 202 0.0 0.9 0.00 0.31 0.30 96 1015.7
20260902021518 71 202 0.0 1.7 0.00 0.31 0.30 96 1015.4
20260902020023 71 202 0.0 1.7 0.00 0.31 0.30 96 1015.6
20260902014535 71 210 0.0 0.9 0.00 0.31 0.30 96 1015.4
20260902013033 71 201 0.0 1.7 0.00 0.31 0.30 95 1015.3
20260902011527 71 201 0.0 1.7 0.00 0.31 0.30 96 1015.1
20260902010036 72 201 0.0 1.7 0.00 0.31 0.30 95 1015.4
20260902004533 72 201 0.0 1.7 0.00 0.31 0.30 95 1015.1
20260902003034 72 352 0.0 1.7 0.01 0.31 0.30 95 1015.1
20260902001533 72 206 0.0 1.7 0.11 0.31 0.30 95 1015.1
20260902000027 72 95 0.0 2.6 0.18 0.31 0.30 93 1015.4
20260901234554 72 55 1.7 4.3 0.19 0.31 0.30 93 1015.2
20260901233028 73 352 2.6 4.3 0.28 0.30 0.29 92 1015.5
20260901231545 74 146 0.9 3.5 0.19 0.20 0.19 89 1015.6
20260901230043 75 200 1.7 2.6 0.12 0.13 0.12 90 1013.6
20260901224530 77 200 2.6 5.2 0.11 0.12 0.11 84 1013.8
20260901223035 83 184 0.0 4.3 0.01 0.02 0.01 79 1013.5
20260901221535 86 194 0.0 1.7 0.00 0.01 0.00 75 1013.6
20260901220036 87 194 0.0 0.9 0.00 0.01 0.00 74 1013.0
20260901214531 88 194 0.9 0.9 0.00 0.01 0.00 71 1013.0
20260901213023 88 194 0.0 1.7 0.00 0.01 0.00 72 1013.3
20260901211536 88 194 0.0 3.5 0.00 0.01 0.00 69 1013.5
20260901210008 89 211 1.7 3.5 0.00 0.01 0.00 68 1013.2
20260901204517 89 205 1.7 3.5 0.00 0.01 0.00 70 1013.3
20260901203025 88 183 2.6 4.3 0.00 0.01 0.00 69 1013.5
20260901201526 89 192 0.9 2.6 0.00 0.01 0.00 69 1013.7
20260901200020 89 208 0.9 4.3 0.00 0.01 0.00 70 1013.7
20260901194511 88 182 2.6 4.3 0.00 0.01 0.00 71 1013.9
20260901193018 88 175 1.7 4.3 0.00 0.01 0.00 72 1014.0
20260901191530 87 200 1.7 5.2 0.00 0.02 0.00 71 1014.0
20260901190034 88 208 1.7 3.5 0.00 0.03 0.00 71 1014.2
20260901184508 87 199 0.9 5.2 0.00 0.03 0.00 72 1014.3
20260901183032 87 190 1.7 5.2 0.00 0.03 0.00 72 1014.2
20260901181523 86 187 1.7 4.3 0.00 0.03 0.00 74 1014.2
20260901180028 85 213 2.6 4.3 0.00 0.03 0.00 75 1014.7
20260901174530 84 217 0.9 1.7 0.00 0.03 0.00 77 1014.6
20260901173010 83 204 1.7 3.5 0.00 0.03 0.00 78 1014.6
20260901171516 83 196 1.7 4.3 0.00 0.03 0.00 79 1014.8
20260901170025 82 196 0.9 3.5 0.00 0.03 0.00 80 1014.8
20260901164531 82 199 0.9 1.7 0.00 0.03 0.00 81 1015.1
20260901163032 81 207 1.7 2.6 0.00 0.03 0.00 84 1015.3
20260901161515 80 200 1.7 2.6 0.00 0.03 0.00 85 1015.4
20260901160022 79 200 0.9 1.7 0.00 0.03 0.00 87 1015.6
20260901154526 78 200 0.9 1.7 0.00 0.03 0.00 88 1015.6